{"data":{"norad_id":58395,"epoch":"2026-09-20T06:46:58.375776Z","epoch_age_seconds":162471,"freshness":"FRESH","line1":"1 58395U 23178X   26263.28262009  .00002770  00000+0  93092-4 0  9991","line2":"2 58395  53.1601 173.0882 0001361  98.6107 261.5050 15.34398008159677","mean_motion":15.34398008,"eccentricity":0.0001361,"inclination_deg":53.1601,"raan_deg":173.0882,"arg_perigee_deg":98.6107,"mean_anomaly_deg":261.505,"bstar":9.3092e-5,"rev_number":15967,"period_min":93.847879917216,"perigee_km":461.77812169481,"apogee_km":463.6402000198,"semimajor_km":6840.8461608573,"source":"CELESTRAK","updated_at":"2026-09-21T09:00:33.868945Z"}}